This demonstration page uses our WeatherBlox Daily Observations layout. Learn more.

Left ArrowRight Arrow

39.51506, -84.39828

Hourly Observations for July 5, 2021

Temp ( °F °C ) Dew Point ( °F °C ) Humidity (%) Winds ( mph kmh ) Pressure ( in mb ) Visibility ( mi km ) Precip ( " mm )
12:15 am 00:15 Clear 76 24.4 71 21.4 83 83 N N/A 29.98 1015 10 16 N/A
12:35 am 00:35 Clear 75 23.7 71 21.4 87 87 SW 5 7 29.99 1015 10 16 N/A
12:55 am 00:55 Clear 74 23.1 71 21.5 91 91 SSW 5 7 29.99 1015 10 16 N/A
1:15 am 01:15 Clear 74 23.3 70 21.3 89 89 N N/A 30.00 1016 10 16 N/A
1:35 am 01:35 Clear 71 21.7 71 21.6 99 99 WSW 3 6 30.00 1016 10 16 N/A
1:55 am 01:55 Clear 70 21 70 21 100 100 WSW 5 7 30.00 1016 7 11 N/A
2:15 am 02:15 Clear 70 21 N/A N/A N N/A 30.00 1016 10 16 N/A
2:35 am 02:35 Clear 70 21 70 21 100 100 N N/A 30.00 1016 10 16 N/A
2:55 am 02:55 Clear 70 21 N/A N/A N N/A 30.00 1016 10 16 N/A
3:15 am 03:15 Hazy 68 20 N/A N/A N N/A 30.00 1016 7 11 N/A
3:35 am 03:35 Hazy 68 20 N/A N/A N N/A 30.00 1016 5 8 N/A
3:55 am 03:55 Hazy 66 19 N/A N/A N N/A 30.01 1016 7 11 N/A
4:15 am 04:15 Hazy 68 20 N/A N/A N N/A 30.00 1016 7 11 N/A
4:35 am 04:35 Clear 66 19 N/A N/A N N/A 30.01 1016 7 11 N/A
4:55 am 04:55 Hazy 66 19 N/A N/A N N/A 30.01 1016 7 11 N/A
5:15 am 05:15 Hazy 68 20 N/A N/A N N/A 30.01 1016 5 8 N/A
5:35 am 05:35 Clear with Mist and Fog 66 19 N/A N/A N N/A 30.02 1016 3 4 N/A
5:55 am 05:55 Clear with Mist and Fog 66 19 N/A N/A N N/A 30.02 1016 3 4 N/A
6:15 am 06:15 Clear with Mist and Fog 66 19 N/A N/A N N/A 30.03 1017 4 6 N/A
6:35 am 06:35 Mostly Cloudy with Fog 66 19 N/A N/A N N/A 30.03 1017 0 0 N/A
6:55 am 06:55 Sunny with Mist and Fog 66 19 N/A N/A N N/A 30.04 1017 3 4 N/A
7:15 am 07:15 Sunny with Mist and Fog 66 19 N/A N/A N N/A 30.05 1018 3 5 N/A
7:35 am 07:35 Sunny with Mist and Fog 68 20 N/A N/A N N/A 30.04 1017 3 4 N/A
7:55 am 07:55 Sunny with Mist and Fog 70 21 N/A N/A N N/A 30.04 1017 3 5 N/A
8:15 am 08:15 Sunny with Mist and Fog 73 22.5 72 22.2 98 98 N N/A 30.04 1017 5 8 N/A
8:35 am 08:35 Sunny with Mist and Fog 74 23.2 72 22 93 93 N N/A 30.05 1018 5 8 N/A
8:55 am 08:55 Sunny with Mist and Fog 75 24 72 22.1 89 89 N N/A 30.05 1017 5 8 N/A
9:15 am 09:15 Sunny 77 25.1 72 22.2 84 84 N N/A 30.05 1018 10 16 N/A
9:35 am 09:35 Sunny 79 25.9 73 22.6 82 82 SSW 3 6 30.05 1018 10 16 N/A
9:55 am 09:55 Sunny 79 26.3 73 22.5 80 80 N N/A 30.05 1018 7 11 N/A
10:15 am 10:15 Sunny 82 27.5 73 22.5 74 74 NNE 3 6 30.04 1017 10 16 N/A
10:35 am 10:35 Sunny 83 28.1 72 22.3 71 71 N N/A 30.04 1017 10 16 N/A
10:55 am 10:55 Sunny 83 28.4 72 22.2 69 69 W 5 7 30.05 1017 10 16 N/A
11:15 am 11:15 Sunny 84 28.7 73 22.5 69 69 N N/A 30.04 1017 10 16 N/A
11:35 am 11:35 Sunny 84 29 72 22.3 67 67 S 7 11 30.04 1017 10 16 N/A
11:55 am 11:55 Partly Cloudy 85 29.5 72 22.4 66 66 SW 9 15 30.04 1017 10 16 N/A
12:15 pm 12:15 Sunny 85 29.7 71 21.9 63 63 SSW 8 13 30.04 1017 10 16 N/A
12:35 pm 12:35 Sunny 86 29.9 72 22.3 64 64 W 7 11 30.04 1017 10 16 N/A
12:55 pm 12:55 Sunny 86 30.1 72 22.4 63 63 W 5 7 30.04 1017 10 16 N/A
1:15 pm 13:15 Mostly Cloudy 87 30.5 72 22.2 61 61 SW 7 11 30.04 1017 10 16 N/A
1:35 pm 13:35 Sunny 87 30.6 72 22.1 60 60 W 6 9 30.04 1017 10 16 N/A
1:55 pm 13:55 Sunny 87 30.8 71 21.8 59 59 SW 8 13 30.04 1017 10 16 N/A
2:15 pm 14:15 Sunny 88 31.1 71 21.6 57 57 SSW 9 15 30.04 1017 10 16 N/A
2:35 pm 14:35 Sunny 88 31.3 69 20.7 53 53 WSW 7 11 30.03 1017 10 16 N/A
2:55 pm 14:55 Sunny 88 31.3 71 21.5 56 56 WSW 8 13 30.03 1017 10 16 N/A
3:15 pm 15:15 Sunny 89 31.7 72 22.1 57 57 WSW 6 9 30.03 1017 10 16 N/A
3:35 pm 15:35 Sunny 90 32 72 22.1 56 56 WSW 9 15 30.02 1017 10 16 N/A
3:55 pm 15:55 Sunny 89 31.8 71 21.6 55 55 WSW 8 13 30.02 1017 10 16 N/A
4:15 pm 16:15 Sunny 90 32 69 20.7 51 51 SW 6 9 30.02 1017 10 16 N/A
4:35 pm 16:35 Sunny 90 32.2 71 21.9 55 55 W 8 13 30.01 1016 10 16 N/A
4:55 pm 16:55 Sunny 89 31.9 71 21.7 55 55 WSW 8 13 30.01 1016 10 16 N/A
5:15 pm 17:15 Sunny 89 31.9 70 21.2 53 53 W 6 9 30.01 1016 10 16 N/A
5:35 pm 17:35 Sunny 90 32 71 21.4 53 53 WSW 7 11 30.01 1016 10 16 N/A
5:55 pm 17:55 Sunny 89 31.8 71 21.5 54 54 WSW 7 11 30.00 1016 10 16 N/A
6:15 pm 18:15 Sunny 89 31.7 71 21.4 54 54 W 9 15 30.01 1016 10 16 N/A
6:35 pm 18:35 Sunny 89 31.4 71 21.8 57 57 SW 8 13 30.00 1016 10 16 N/A
6:55 pm 18:55 Sunny 88 31.2 72 22.4 60 60 WSW 10 17 30.00 1016 10 16 N/A
7:15 pm 19:15 Sunny 87 30.8 72 22.2 60 60 W 9 15 30.00 1016 10 16 N/A
7:35 pm 19:35 Sunny 87 30.4 73 22.8 64 64 WSW 7 11 30.00 1016 10 16 N/A
7:55 pm 19:55 Sunny 86 30 72 22.1 63 63 WSW 5 7 30.00 1016 10 16 N/A
8:15 pm 20:15 Sunny 85 29.2 73 22.6 68 68 WSW 5 7 30.00 1016 10 16 N/A
8:35 pm 20:35 Sunny 83 28.3 73 22.9 73 73 W 5 7 30.02 1016 10 16 N/A
8:55 pm 20:55 Sunny 80 26.7 75 24 85 85 WNW 3 6 30.02 1017 10 16 N/A
9:15 pm 21:15 Clear 78 25.4 76 24.4 94 94 WNW 3 6 30.02 1017 10 16 N/A
9:35 pm 21:35 Clear 77 24.8 75 24 95 95 WNW 5 7 30.03 1017 10 16 N/A
9:55 pm 21:55 Clear 76 24.7 74 23.6 94 94 N N/A 30.03 1017 10 16 N/A
10:15 pm 22:15 Clear 75 23.8 74 23.5 98 98 N N/A 30.05 1017 10 16 N/A
10:35 pm 22:35 Clear 73 23 73 23 100 100 N N/A 30.05 1018 10 16 N/A
10:55 pm 22:55 Clear 73 23 N/A N/A N N/A 30.05 1018 7 11 N/A
11:15 pm 23:15 Clear 73 23 N/A N/A N N/A 30.05 1018 10 16 N/A
11:35 pm 23:35 Clear 72 22 N/A N/A N N/A 30.05 1018 7 11 N/A
11:55 pm 23:55 Clear 72 22 N/A N/A N N/A 30.05 1018 7 11 N/A

Powered by AerisWeather